| time (UTC) | temp F | wind direction | speed MPH | gust MPH | rain 1hr in | rain 24hr in | rain mn in | humidity % | barometer mb |
| 20260503211516 | 86 | 142 | 0.0 | 0.0 | 0.00 | 0.00 | 0.00 | 63 | 1013.3 |
| 20260503210015 | 87 | 109 | 0.0 | 4.0 | 0.00 | 0.00 | 0.00 | 62 | 1013.2 |
| 20260503204513 | 87 | 116 | 1.0 | 9.0 | 0.00 | 0.00 | 0.00 | 61 | 1013.2 |
| 20260503203015 | 87 | 128 | 0.0 | 8.0 | 0.00 | 0.00 | 0.00 | 60 | 1013.3 |
| 20260503201510 | 87 | 117 | 0.0 | 0.0 | 0.00 | 0.00 | 0.00 | 59 | 1013.3 |
| 20260503200008 | 88 | 101 | 0.0 | 3.0 | 0.00 | 0.00 | 0.00 | 59 | 1013.5 |
| 20260503194505 | 88 | 101 | 0.0 | 0.0 | 0.00 | 0.00 | 0.00 | 60 | 1013.6 |
| 20260503193002 | 88 | 98 | 0.0 | 7.0 | 0.00 | 0.00 | 0.00 | 60 | 1013.6 |
| 20260503191603 | 88 | 103 | 0.0 | 6.0 | 0.00 | 0.00 | 0.00 | 58 | 1013.7 |
| 20260503190057 | 88 | 169 | 0.0 | 0.0 | 0.00 | 0.00 | 0.00 | 58 | 1013.8 |
| 20260503184557 | 89 | 168 | 0.0 | 0.0 | 0.00 | 0.00 | 0.00 | 58 | 1014.0 |
| 20260503183051 | 89 | 167 | 0.0 | 11.0 | 0.00 | 0.00 | 0.00 | 55 | 1014.2 |
| 20260503181546 | 90 | 138 | 1.0 | 11.0 | 0.00 | 0.00 | 0.00 | 54 | 1014.3 |
| 20260503180055 | 89 | 141 | 0.0 | 11.0 | 0.00 | 0.00 | 0.00 | 56 | 1014.4 |
| 20260503174538 | 89 | 118 | 0.0 | 0.0 | 0.00 | 0.00 | 0.00 | 55 | 1014.7 |
| 20260503173040 | 89 | 103 | 0.0 | 8.0 | 0.00 | 0.00 | 0.00 | 53 | 1014.9 |
| 20260503171544 | 88 | 108 | 0.0 | 6.0 | 0.00 | 0.00 | 0.00 | 55 | 1015.0 |
| 20260503110108 | 75 | 220 | 0.0 | 0.0 | 0.00 | 0.00 | 0.00 | 77 | 1016.1 |
| 20260503081545 | 74 | 221 | 0.0 | 0.0 | 0.00 | 0.00 | 0.00 | 66 | 1014.7 |
| 20260503071556 | 74 | 214 | 0.0 | 0.0 | 0.00 | 0.00 | 0.00 | 68 | 1014.9 |
| 20260503054518 | 75 | 212 | 0.0 | 0.0 | 0.00 | 0.00 | 0.00 | 74 | 1015.8 |
| 20260503053117 | 75 | 212 | 0.0 | 0.0 | 0.00 | 0.00 | 0.00 | 76 | 1015.8 |
| 20260503051515 | 76 | 176 | 0.0 | 0.0 | 0.00 | 0.00 | 0.00 | 77 | 1015.8 |
| 20260503050023 | 76 | 176 | 0.0 | 0.0 | 0.00 | 0.00 | 0.00 | 77 | 1016.0 |
| 20260503044517 | 76 | 176 | 0.0 | 0.0 | 0.00 | 0.00 | 0.00 | 77 | 1016.1 |
| 20260503043008 | 76 | 176 | 0.0 | 0.0 | 0.00 | 0.00 | 0.00 | 77 | 1016.2 |
| 20260503041506 | 76 | 176 | 0.0 | 0.0 | 0.00 | 0.00 | 0.00 | 77 | 1016.2 |
| 20260503040003 | 76 | 176 | 0.0 | 0.0 | 0.00 | 0.00 | 0.00 | 78 | 1016.3 |
| 20260503034603 | 76 | 176 | 0.0 | 0.0 | 0.00 | 0.00 | 0.00 | 78 | 1016.4 |
| 20260503033002 | 77 | 203 | 0.0 | 0.0 | 0.00 | 0.00 | 0.00 | 79 | 1016.4 |
| 20260503031503 | 77 | 217 | 0.0 | 0.0 | 0.00 | 0.00 | 0.00 | 80 | 1016.4 |
| 20260503030002 | 77 | 176 | 0.0 | 0.0 | 0.00 | 0.00 | 0.00 | 80 | 1016.3 |
| 20260503024600 | 77 | 181 | 0.0 | 0.0 | 0.00 | 0.00 | 0.00 | 81 | 1016.4 |
| 20260503023100 | 78 | 199 | 0.0 | 0.0 | 0.00 | 0.00 | 0.00 | 81 | 1016.3 |
| 20260503021600 | 78 | 148 | 0.0 | 0.0 | 0.00 | 0.00 | 0.00 | 81 | 1016.1 |
| 20260503020058 | 78 | 132 | 0.0 | 0.0 | 0.00 | 0.00 | 0.00 | 82 | 1016.0 |
| 20260503014609 | 78 | 179 | 0.0 | 0.0 | 0.00 | 0.00 | 0.00 | 82 | 1016.0 |
| 20260503013056 | 78 | 176 | 0.0 | 0.0 | 0.00 | 0.00 | 0.00 | 81 | 1015.8 |
| 20260503011600 | 78 | 202 | 0.0 | 0.0 | 0.00 | 0.00 | 0.00 | 81 | 1015.6 |
| 20260503010055 | 79 | 168 | 0.0 | 0.0 | 0.00 | 0.00 | 0.00 | 81 | 1015.4 |
| 20260503004554 | 79 | 162 | 0.0 | 0.0 | 0.00 | 0.00 | 0.00 | 81 | 1015.1 |
| 20260503003053 | 79 | 98 | 0.0 | 0.0 | 0.00 | 0.00 | 0.00 | 81 | 1014.9 |
| 20260503001604 | 79 | 138 | 0.0 | 0.0 | 0.00 | 0.00 | 0.00 | 80 | 1014.8 |
| 20260503000052 | 80 | 154 | 0.0 | 0.0 | 0.00 | 0.00 | 0.00 | 80 | 1014.8 |
| 20260502234551 | 80 | 157 | 0.0 | 0.0 | 0.00 | 0.00 | 0.00 | 79 | 1014.5 |
| 20260502233046 | 80 | 135 | 0.0 | 0.0 | 0.00 | 0.00 | 0.00 | 79 | 1014.3 |
| 20260502231540 | 81 | 117 | 0.0 | 0.0 | 0.00 | 0.00 | 0.00 | 78 | 1014.1 |
| 20260502230038 | 81 | 124 | 0.0 | 0.0 | 0.00 | 0.00 | 0.00 | 76 | 1014.0 |
| 20260502224537 | 82 | 134 | 0.0 | 0.0 | 0.00 | 0.00 | 0.00 | 75 | 1014.0 |
| 20260502223038 | 83 | 105 | 0.0 | 4.0 | 0.00 | 0.00 | 0.00 | 73 | 1014.0 |
| 20260502221540 | 83 | 89 | 0.0 | 2.0 | 0.00 | 0.00 | 0.00 | 71 | 1013.8 |
| 20260502220036 | 84 | 113 | 0.0 | 0.0 | 0.00 | 0.00 | 0.00 | 70 | 1013.7 |
| 20260502214535 | 84 | 101 | 0.0 | 0.0 | 0.00 | 0.00 | 0.00 | 69 | 1013.4 |
| 20260502213036 | 85 | 98 | 0.0 | 0.0 | 0.00 | 0.00 | 0.00 | 64 | 1013.0 |